DW6162 Weather Reports


Display with metric or nautical units.
time (UTC)temp
F
wind
direction
speed
MPH
gust
MPH
rain 1hr
in
rain 24hr
in
rain mn
in
humidity
%
barometer
mb
20260508235452 49 133 0.0 2.0 0.00 0.08 0.02 83 1010.0
20260508234506 49 173 0.0 2.0 0.00 0.08 0.02 82 1011.5
20260508233120 49 100 1.0 4.0 0.00 0.08 0.02 82 1011.4
20260508232750 49 105 1.0 2.0 0.00 0.08 0.02 82 1009.9
20260508231850 50 109 2.0 6.0 0.00 0.08 0.02 80 1009.7
20260508231503 49 123 1.0 5.0 0.00 0.08 0.02 80 1011.2
20260508230951 50 116 2.0 5.0 0.00 0.08 0.02 79 1009.6
20260508230107 50 135 1.0 4.0 0.00 0.08 0.02 79 1010.9
20260508224503 50 75 1.0 4.0 0.00 0.08 0.02 77 1011.1
20260508224250 51 140 2.0 8.0 0.00 0.08 0.02 77 1009.5
20260508223350 51 160 4.0 10.0 0.00 0.08 0.02 76 1009.3
20260508223102 51 200 4.0 10.0 0.00 0.08 0.02 74 1010.8
20260508222451 53 156 4.0 10.0 0.00 0.08 0.02 71 1009.2
20260508221550 55 128 1.0 3.0 0.00 0.08 0.02 59 1009.1
20260508221503 54 128 1.0 3.0 0.00 0.08 0.02 59 1010.7
20260508220650 55 326 1.0 4.0 0.00 0.08 0.02 57 1009.1
20260508220103 55 214 1.0 5.0 0.00 0.08 0.02 57 1010.6
20260508214850 56 159 3.0 6.0 0.00 0.08 0.02 58 1009.1
20260508214502 55 172 3.0 6.0 0.00 0.08 0.02 59 1010.6
20260508213950 56 169 2.0 6.0 0.00 0.08 0.02 58 1009.1
20260508213103 55 153 1.0 5.0 0.00 0.08 0.02 62 1010.7
20260508212150 54 354 1.0 3.0 0.00 0.08 0.02 62 1009.2
20260508211502 53 311 1.0 5.0 0.00 0.08 0.02 63 1010.8
20260508211250 54 331 2.0 5.0 0.00 0.08 0.02 63 1009.2
20260508210351 53 347 2.0 5.0 0.00 0.08 0.02 63 1009.2
20260508210108 53 322 2.0 5.0 0.00 0.08 0.02 61 1010.8
20260508205450 54 333 2.0 4.0 0.00 0.08 0.02 62 1009.3
20260508204550 54 345 2.0 10.0 0.00 0.08 0.02 61 1009.3
20260508204506 53 191 1.0 9.0 0.00 0.08 0.02 61 1010.9
20260508203650 54 355 1.0 3.0 0.00 0.08 0.02 68 1009.4
20260508203106 54 98 0.0 4.0 0.00 0.08 0.02 66 1011.0
20260508201850 54 150 1.0 3.0 0.00 0.08 0.02 66 1009.7
20260508201502 53 153 0.0 3.0 0.00 0.08 0.02 65 1011.2
20260508200950 54 141 2.0 5.0 0.00 0.08 0.02 66 1009.7
20260508200103 53 111 2.0 5.0 0.00 0.08 0.02 69 1011.4
20260508200051 54 149 2.0 5.0 0.00 0.08 0.02 69 1009.9
20260508195151 52 55 1.0 3.0 0.00 0.08 0.02 76 1010.1
20260508194503 51 25 0.0 4.0 0.00 0.08 0.02 76 1011.6
20260508194250 51 136 2.0 4.0 0.00 0.08 0.02 74 1010.0
20260508193350 52 134 3.0 5.0 0.00 0.08 0.02 76 1010.1
20260508193116 51 135 2.0 5.0 0.00 0.08 0.02 74 1011.7
20260508192450 51 163 3.0 9.0 0.00 0.08 0.02 71 1010.2
20260508191551 52 207 3.0 7.0 0.00 0.08 0.02 70 1010.0
20260508191503 52 158 1.0 8.0 0.00 0.08 0.02 71 1011.6
20260508190650 52 344 3.0 13.0 0.00 0.08 0.02 66 1010.3
20260508185750 52 336 3.0 6.0 0.00 0.08 0.02 66 1010.4
20260508184503 52 304 3.0 8.0 0.00 0.08 0.02 67 1012.0
20260508183950 52 336 5.0 9.0 0.00 0.08 0.02 65 1010.4
20260508183106 50 328 2.0 8.0 0.00 0.08 0.02 68 1012.1
20260508183050 51 329 4.0 9.0 0.00 0.08 0.02 68 1010.4
20260508182150 51 325 4.0 9.0 0.00 0.08 0.02 69 1010.5
20260508181510 50 336 5.0 14.0 0.00 0.08 0.02 68 1012.1
20260508181250 51 330 5.0 14.0 0.00 0.08 0.02 69 1010.5
20260508180350 50 329 4.0 8.0 0.00 0.08 0.02 69 1010.7
20260508180105 50 323 3.0 9.0 0.00 0.08 0.02 68 1012.3
20260508175450 51 334 5.0 12.0 0.00 0.08 0.02 69 1010.9
20260508174550 51 327 5.0 10.0 0.00 0.08 0.02 68 1010.8
20260508174503 50 336 5.0 10.0 0.00 0.08 0.02 67 1012.4
20260508173103 50 85 3.0 10.0 0.00 0.08 0.02 72 1012.4
20260508172750 50 332 5.0 9.0 0.00 0.08 0.02 69 1010.9
20260508171850 50 346 4.0 8.0 0.00 0.08 0.02 71 1011.2
20260508171503 49 323 3.0 8.0 0.00 0.08 0.02 73 1012.7
20260508170957 50 328 4.0 8.0 0.00 0.08 0.02 71 1011.3
20260508164506 48 4 2.0 9.0 0.00 0.08 0.02 80 1013.0
20260508163350 47 330 3.0 10.0 0.00 0.08 0.02 81 1011.3
20260508163103 46 293 3.0 9.0 0.00 0.08 0.02 79 1013.1
20260508162450 46 327 4.0 7.0 0.00 0.08 0.02 80 1011.7
20260508161550 46 322 4.0 9.0 0.00 0.08 0.02 81 1011.7
20260508161505 46 5 4.0 9.0 0.00 0.08 0.02 80 1013.3
20260508155750 44 341 3.0 8.0 0.00 0.08 0.02 88 1012.0
20260508154850 44 317 1.0 6.0 0.01 0.08 0.02 90 1012.1
20260508153950 43 340 2.0 6.0 0.01 0.08 0.02 93 1012.0
20260508153103 42 115 0.0 3.0 0.01 0.08 0.02 93 1013.6
20260508153050 42 133 1.0 3.0 0.01 0.08 0.02 93 1012.0
20260508152150 42 144 1.0 5.0 0.01 0.08 0.02 92 1011.9
20260508151502 42 120 1.0 2.0 0.01 0.08 0.02 92 1013.4
20260508151250 43 191 1.0 2.0 0.01 0.08 0.02 92 1011.8
20260508150103 42 202 0.0 2.0 0.01 0.08 0.02 94 1013.2
20260508145450 42 129 1.0 3.0 0.01 0.08 0.02 93 1011.6
20260508144550 42 123 0.0 3.0 0.00 0.07 0.01 92 1011.8
20260508144503 41 143 0.0 2.0 0.00 0.07 0.01 92 1013.4
20260508143650 42 103 0.0 2.0 0.00 0.07 0.01 92 1011.6
20260508143104 42 120 0.0 3.0 0.00 0.07 0.01 90 1013.1
20260508142750 42 125 1.0 2.0 0.00 0.07 0.01 90 1011.5
20260508141850 43 142 2.0 4.0 0.00 0.07 0.01 90 1011.3
20260508141503 43 144 1.0 5.0 0.00 0.07 0.01 89 1012.8
20260508140950 43 152 2.0 5.0 0.00 0.07 0.01 89 1011.2
20260508140035 43 151 1.0 6.0 0.00 0.07 0.01 90 1012.9
20260508135644 40 157 1.0 2.0 0.00 0.07 0.01 93 1011.4
20260508134549 39 134 1.0 1.0 0.00 0.07 0.01 93 1011.4
20260508134540 42 188 0.0 4.0 0.00 0.07 0.01 91 1013.0
20260508133709 38 131 0.0 2.0 0.00 0.07 0.01 93 1011.4
20260508133152 41 170 1.0 3.0 0.00 0.07 0.01 91 1013.0
20260508132857 38 123 1.0 2.0 0.00 0.07 0.01 93 1011.3
20260508131635 38 123 1.0 2.0 0.00 0.07 0.01 93 1011.3
20260508131531 40 235 1.0 5.0 0.00 0.07 0.01 92 1012.9
20260508130726 38 323 1.0 1.0 0.00 0.07 0.01 93 1011.3
20260508130113 39 184 1.0 3.0 0.00 0.07 0.01 93 1013.0
20260508125834 38 149 1.0 3.0 0.00 0.07 0.01 96 1011.3
20260508124903 38 149 1.0 3.0 0.00 0.07 0.01 96 1011.3
20260508124528 38 128 0.0 4.0 0.00 0.07 0.01 93 1013.0
20260508124132 38 149 1.0 3.0 0.00 0.07 0.01 96 1011.3
20260508123925 38 149 1.0 3.0 0.00 0.07 0.01 96 1011.3
20260508123007 38 200 0.0 3.0 0.00 0.07 0.01 95 1012.7
20260508122355 34 0 0.0 0.0 0.00 0.07 0.01 97 1010.9
20260508121526 36 137 1.0 4.0 0.00 0.07 0.01 97 1012.6
20260508121416 33 154 0.0 1.0 0.01 0.07 0.01 96 1011.0
20260508120416 32 0 0.0 0.0 0.01 0.07 0.01 96 1010.9
20260508120120 34 145 0.0 1.0 0.00 0.07 0.01 97 1012.9
20260508115717 32 136 0.0 1.0 0.01 0.07 0.01 96 1011.0
20260508114646 33 136 0.0 1.0 0.01 0.07 0.01 96 1010.8
20260508114542 33 164 0.0 1.0 0.01 0.07 0.01 96 1012.8
20260508113703 33 115 0.0 1.0 0.01 0.07 0.01 96 1010.8
20260508113152 32 144 0.0 1.0 0.01 0.07 0.01 96 1012.8
20260508112854 33 0 0.0 0.0 0.01 0.07 0.01 96 1011.0
20260508112540 33 202 1.0 2.0 0.01 0.07 0.01 96 1011.1
20260508111513 32 158 0.0 1.0 0.01 0.07 0.01 96 1013.1
20260508111137 33 202 0.0 2.0 0.00 0.06 0.00 96 1011.3
20260508110433 33 0 0.0 0.0 0.00 0.06 0.00 96 1011.1
20260508105406 33 0 0.0 0.0 0.00 0.06 0.00 96 1011.0
20260508104613 33 152 0.0 1.0 0.00 0.06 0.00 96 1012.8
20260508104452 33 150 0.0 1.0 0.00 0.06 0.00 96 1010.9
20260508102513 33 0 0.0 0.0 0.00 0.06 0.00 96 1010.6
20260508101722 33 185 1.0 2.0 0.00 0.06 0.00 95 1010.5
20260508101513 33 150 0.0 1.0 0.00 0.06 0.00 96 1012.3
20260508100713 33 173 1.0 2.0 0.00 0.06 0.00 95 1010.5
20260508100012 33 150 0.0 1.0 0.00 0.06 0.00 96 1012.5
20260508095817 33 173 0.0 1.0 0.00 0.06 0.00 95 1010.9
20260508095338 33 172 0.0 1.0 0.00 0.06 0.00 95 1010.9
20260508094505 32 151 0.0 3.0 0.00 0.06 0.00 96 1012.5
20260508093311 34 171 0.0 1.0 0.00 0.06 0.00 94 1010.9
20260508093003 33 174 0.0 2.0 0.00 0.06 0.00 95 1012.6
20260508092312 34 171 0.0 1.0 0.00 0.06 0.00 94 1010.9
20260508091621 33 172 0.0 1.0 0.00 0.06 0.00 95 1012.6
20260508091331 34 14 1.0 2.0 0.00 0.06 0.00 94 1011.0
20260508085506 36 0 0.0 0.0 0.00 0.06 0.00 93 1011.0
20260508084628 35 321 1.0 1.0 0.00 0.06 0.00 95 1010.8
20260508084506 34 8 0.0 1.0 0.00 0.06 0.00 93 1012.5
20260508083717 34 304 0.0 1.0 0.00 0.06 0.00 95 1010.7
20260508083118 35 281 0.0 1.0 0.00 0.06 0.00 93 1012.6
20260508082824 34 6 0.0 1.0 0.00 0.06 0.00 94 1010.9
20260508082456 34 6 0.0 1.0 0.00 0.06 0.00 95 1010.9
20260508081520 35 281 0.0 3.0 0.00 0.06 0.00 95 1012.5
20260508080454 34 190 1.0 3.0 0.00 0.06 0.00 95 1010.8
20260508080108 33 294 0.0 1.0 0.00 0.06 0.00 95 1012.4
20260508075351 34 174 1.0 3.0 0.00 0.06 0.00 94 1010.8
20260508074606 34 6 0.0 2.0 0.00 0.06 0.00 95 1012.5
20260508074548 34 161 0.0 1.0 0.00 0.06 0.00 94 1010.8
20260508073620 34 120 0.0 1.0 0.00 0.06 0.00 94 1010.8
20260508073047 34 200 0.0 1.0 0.00 0.06 0.00 95 1012.5
20260508071621 34 112 0.0 1.0 0.00 0.06 0.00 94 1012.6
20260508071601 35 0 0.0 0.0 0.00 0.06 0.00 94 1010.9
20260508070855 35 0 0.0 0.0 0.00 0.06 0.00 94 1011.0
20260508070601 35 0 0.0 0.0 0.00 0.06 0.00 94 1011.0
20260508070142 34 136 0.0 2.0 0.00 0.06 0.00 94 1012.6
20260508065618 35 0 0.0 0.0 0.00 0.06 0.00 93 1010.9
20260508064608 34 246 0.0 1.0 0.00 0.06 0.00 94 1012.6
20260508063527 36 133 0.0 2.0 0.00 0.06 0.00 92 1011.1
20260508063041 34 105 0.0 1.0 0.00 0.06 0.00 93 1012.6
20260508062248 36 109 0.0 1.0 0.00 0.06 0.00 92 1011.2
20260508061504 36 0 0.0 0.0 0.00 0.06 0.00 92 1011.3
20260508060744 36 0 0.0 0.0 0.00 0.06 0.00 92 1011.3
20260508060053 34 117 0.0 1.0 0.00 0.06 0.00 93 1013.0
20260508055704 36 95 0.0 1.0 0.00 0.06 0.00 92 1011.2
20260508054659 36 82 0.0 1.0 0.00 0.06 0.00 92 1011.1
20260508054509 35 181 0.0 2.0 0.00 0.06 0.00 93 1012.8
20260508053716 36 270 0.0 2.0 0.00 0.06 0.00 92 1011.1
20260508053116 35 248 0.0 1.0 0.00 0.06 0.00 92 1012.8
20260508052938 36 289 1.0 2.0 0.00 0.06 0.00 92 1011.1
20260508051530 36 114 0.0 1.0 0.00 0.06 0.00 92 1012.7
20260508051000 37 44 1.0 3.0 0.00 0.06 0.00 92 1011.0
20260508050459 37 2 1.0 2.0 0.00 0.06 0.00 93 1011.0
20260508050147 36 210 0.0 2.0 0.00 0.06 0.00 92 1012.6
20260508045423 37 166 0.0 1.0 0.00 0.06 0.00 93 1011.0
20260508044531 37 0 0.0 0.0 0.00 0.06 0.00 94 1011.1
20260508044528 36 106 1.0 4.0 0.00 0.06 0.00 92 1012.6
20260508043055 36 315 0.0 5.0 0.00 0.06 0.00 93 1012.5
20260508042650 37 7 1.0 2.0 0.00 0.06 0.00 95 1010.9
20260508041616 37 15 0.0 2.0 0.00 0.06 0.00 96 1010.9
20260508041519 37 105 0.0 2.0 0.00 0.06 0.00 94 1012.4
20260508035813 37 13 0.0 1.0 0.00 0.06 0.06 96 1011.0
20260508034521 36 273 0.0 1.0 0.00 0.06 0.06 96 1012.5
20260508034002 37 0 0.0 0.0 0.00 0.06 0.06 96 1011.0
20260508033317 38 0 0.0 0.0 0.00 0.06 0.06 95 1010.9
20260508032316 38 0 0.0 0.0 0.00 0.06 0.06 95 1011.0
20260508031522 37 169 0.0 1.0 0.00 0.06 0.06 95 1012.5
20260508031303 38 173 0.0 1.0 0.00 0.06 0.06 94 1011.1
20260508030452 39 0 0.0 0.0 0.00 0.06 0.06 94 1011.1
20260508025505 39 0 0.0 0.0 0.01 0.06 0.06 94 1011.1
20260508024622 40 151 0.0 1.0 0.02 0.06 0.06 94 1011.1
20260508024609 38 138 0.0 1.0 0.00 0.06 0.06 94 1012.6
20260508023723 40 67 1.0 2.0 0.03 0.06 0.06 93 1011.1
20260508023107 39 138 0.0 1.0 0.01 0.06 0.06 94 1012.5
20260508021552 39 96 0.0 3.0 0.02 0.06 0.06 93 1012.6
20260508021049 40 337 2.0 3.0 0.06 0.06 0.06 92 1011.1
20260508020154 40 62 1.0 2.0 0.06 0.06 0.06 92 1011.2
20260508020118 39 74 0.0 3.0 0.04 0.06 0.06 93 1012.7
20260508015342 41 318 1.0 3.0 0.05 0.05 0.05 91 1011.1
20260508014512 40 236 3.0 6.0 0.06 0.06 0.06 92 1012.5
20260508013434 42 299 3.0 5.0 0.02 0.02 0.02 87 1010.8
20260508013157 40 323 0.0 2.0 0.05 0.05 0.05 92 1012.3
20260508012533 46 292 3.0 6.0 0.00 0.00 0.00 73 1010.8
20260508011637 47 318 2.0 6.0 0.00 0.00 0.00 66 1010.7
20260508011624 41 280 0.0 6.0 0.04 0.04 0.04 90 1012.3
20260508004911 48 278 1.0 1.0 0.00 0.00 0.00 60 1009.6
20260508004614 46 128 3.0 7.0 0.00 0.00 0.00 68 1010.9
20260508004005 48 314 1.0 2.0 0.00 0.00 0.00 59 1009.2
20260508003431 48 321 2.0 4.0 0.00 0.00 0.00 58 1009.0
20260508002355 48 320 2.0 4.0 0.00 0.00 0.00 58 1008.9
20260508001700 47 316 0.0 3.0 0.00 0.00 0.00 59 1010.3
20260508001555 48 319 2.0 4.0 0.00 0.00 0.00 58 1008.9